Columbia Owens, SC

5:44 PM EDT on June 24, 2018 (GMT -0400)
Columbia Owens Downtown

Weather History for KCUB - October, 2017

Change the Weather History Date:

Thursday, October 12, 2017

  Actual Average Record
Temperature  
Mean Temperature 83 °F 67 °F  
Max Temperature 91 °F 77 °F 91 °F (2017)
Min Temperature 75 °F 56 °F 39 °F (2000)
Degree Days  
Heating Degree Days 0 2  
Month to date heating degree days 0 15  
Since 1 July heating degree days 0 18  
Cooling Degree Days 18 3  
Month to date cooling degree days 151 59  
Year to date cooling degree days 2626 2206  
Growing Degree Days 32 (Base 50)    
Moisture  
Dew Point 73 °F    
Average Humidity 80    
Maximum Humidity 94    
Minimum Humidity 52    
Precipitation  
Precipitation 0.00 in 0.09 in 0.14 in (2011)
Month to date precipitation 0.56 1.40  
Year to date precipitation 40.66 37.29  
Sea Level Pressure  
Sea Level Pressure 30.04 in    
Wind  
Wind Speed 2 mph (South)    
Max Wind Speed 8 mph    
Max Gust Speed 14 mph    
Visibility 9 miles    
Events      
T = Trace of Precipitation, MM = Missing Value Source: NWS Daily Summary

Daily Weather History Graph

Daily Weather History Graph

Search for Another Location

Airport or City:

Astronomy

Oct. 12, 2017 Rise Set
Actual Time 7:26 AM EDT 6:53 PM EDT
Civil Twilight 7:01 AM EDT 7:18 PM EDT
Nautical Twilight 6:32 AM EDT 7:47 PM EDT
Astronomical Twilight 6:03 AM EDT 8:16 PM EDT
Moon 12:06 AM EDT (10/12) 2:27 PM EDT (10/12)
Length of Visible Light 12h 16m
Length of Day
11h 26m
Waning Gibbous, 49% of the Moon is Illuminated
Oct 12
Waning Gibbous
Oct 19
New
Oct 27
First Quarter
Nov 4
Full
Nov 10
Last Quarter

Hourly Weather History & Observations

Time (EDT) Temp. Heat Index Dew Point Humidity Pressure Visibility Wind Dir Wind Speed Gust Speed Precip Events Conditions
12:53 AM 77.0 °F - 73.9 °F 90% 30.03 in 10.0 mi Calm Calm - N/A   Clear
1:53 AM 75.9 °F - 73.9 °F 94% 30.02 in 10.0 mi South 3.5 mph - N/A   Scattered Clouds
2:53 AM 75.9 °F - 73.9 °F 94% 30.01 in 10.0 mi Calm Calm - N/A   Clear
3:53 AM 75.0 °F - 73.0 °F 94% 30.00 in 10.0 mi Calm Calm - N/A   Partly Cloudy
4:28 AM 75.0 °F - 73.0 °F 94% 30.01 in 9.0 mi Calm Calm - N/A   Mostly Cloudy
4:41 AM 75.0 °F - 73.0 °F 94% 30.01 in 9.0 mi Calm Calm - N/A   Mostly Cloudy
4:53 AM 75.0 °F - 73.0 °F 94% 30.00 in 9.0 mi Calm Calm - N/A   Overcast
5:53 AM 75.0 °F - 73.0 °F 94% 30.01 in 9.0 mi Calm Calm - N/A   Overcast
6:38 AM 75.0 °F - 73.0 °F 94% 30.03 in 8.0 mi Calm Calm - N/A   Scattered Clouds
6:53 AM 75.0 °F - 73.0 °F 94% 30.02 in 7.0 mi Calm Calm - N/A   Mostly Cloudy
7:53 AM 75.0 °F - 73.0 °F 94% 30.04 in 8.0 mi SW 3.5 mph - N/A   Overcast
8:53 AM 75.9 °F - 73.9 °F 94% 30.05 in 7.0 mi SSW 4.6 mph - N/A   Overcast
9:53 AM 77.0 °F - 73.9 °F 90% 30.06 in 8.0 mi Calm Calm - N/A   Overcast
10:53 AM 79.0 °F - 73.9 °F 84% 30.06 in 9.0 mi South 3.5 mph - N/A   Overcast
11:37 AM 82.0 °F 87.4 °F 73.0 °F 74% 30.07 in 10.0 mi South 3.5 mph - N/A   Partly Cloudy
11:53 AM 82.0 °F 87.4 °F 73.0 °F 74% 30.06 in 10.0 mi Calm Calm - N/A   Scattered Clouds
12:53 PM 84.9 °F 91.4 °F 73.0 °F 67% 30.05 in 10.0 mi Variable 3.5 mph - N/A   Partly Cloudy
1:53 PM 86.0 °F 91.5 °F 71.1 °F 61% 30.03 in 10.0 mi Variable 5.8 mph - N/A   Partly Cloudy
2:53 PM 89.1 °F 95.0 °F 71.1 °F 55% 30.01 in 10.0 mi South 5.8 mph - N/A   Partly Cloudy
3:53 PM 89.1 °F 95.0 °F 71.1 °F 55% 30.00 in 10.0 mi ENE 4.6 mph - N/A   Scattered Clouds
4:53 PM 90.0 °F 95.4 °F 70.0 °F 52% 30.00 in 10.0 mi Variable 3.5 mph - N/A   Partly Cloudy
5:53 PM 89.1 °F 94.1 °F 70.0 °F 53% 30.00 in 10.0 mi Calm Calm - N/A   Scattered Clouds
6:53 PM 86.0 °F 91.5 °F 71.1 °F 61% 30.01 in 10.0 mi Calm Calm - N/A   Clear
7:53 PM 82.9 °F 88.8 °F 73.0 °F 72% 30.04 in 10.0 mi Calm Calm - N/A   Clear
8:53 PM 81.0 °F 86.2 °F 73.9 °F 79% 30.05 in 10.0 mi Calm Calm - N/A   Clear
9:53 PM 79.0 °F - 75.0 °F 88% 30.07 in 10.0 mi Calm Calm - N/A   Partly Cloudy
10:53 PM 80.1 °F 84.2 °F 73.0 °F 79% 30.10 in 10.0 mi Variable 3.5 mph - N/A   Overcast
11:16 PM 79.0 °F - 72.0 °F 79% 30.11 in 10.0 mi Variable 3.5 mph - N/A   Overcast
11:53 PM 79.0 °F - 72.0 °F 79% 30.11 in 10.0 mi Variable 3.5 mph - N/A   Mostly Cloudy